Ogden Hill AFB, UT

9:25 PM MDT on July 22, 2017 (GMT -0600)
Hill Air Force Base

Weather History for KHIF - May, 2014

Change the Weather History Date:

Saturday, May 10, 2014

  Actual Average Record
Temperature  
Mean Temperature 48 °F -  
Max Temperature 56 °F 64 °F 83 °F (2007)
Min Temperature 42 °F 44 °F 35 °F (2000)
Degree Days  
Heating Degree Days 16    
Moisture  
Dew Point 35 °F    
Average Humidity 64    
Maximum Humidity 87    
Minimum Humidity 33    
Precipitation  
Precipitation 0.02 in - - ()
Sea Level Pressure  
Sea Level Pressure 29.86 in    
Wind  
Wind Speed 8 mph (North)    
Max Wind Speed 20 mph    
Max Gust Speed 24 mph    
Visibility 10 miles    
Events Rain    
Averages and records for this station are not official NWS values.
T = Trace of Precipitation, MM = Missing Value Source: NWS Daily Summary

Daily Weather History Graph

Daily Weather History Graph

Search for Another Location

Airport or City:

Trip Planner

Search our weather history database for the weather conditions in past years. The results will help you decide how hot, cold, wet, or windy it might be!

Date:

Astronomy

May. 10, 2014 Rise Set
Actual Time 6:14 AM MDT 8:34 PM MDT
Civil Twilight 5:44 AM MDT 9:05 PM MDT
Nautical Twilight 5:05 AM MDT 9:43 PM MDT
Astronomical Twilight 4:23 AM MDT 10:25 PM MDT
Moon 4:31 PM MDT (5/10) 3:52 AM MDT (5/10)
Length of Visible Light 15h 21m
Length of Day
14h 19m
Waxing Gibbous, 82% of the Moon is Illuminated
May 10
Waxing Gibbous
May 14
Full
May 21
Last Quarter
May 28
New
Jun 5
First Quarter

Hourly Weather History & Observations

Time (MDT) Temp. Windchill Dew Point Humidity Pressure Visibility Wind Dir Wind Speed Gust Speed Precip Events Conditions
12:58 AM 46.2 °F 44.1 °F 37.2 °F 71% 29.85 in 10.0 mi ESE 4.6 mph - N/A   Clear
1:58 AM 45.9 °F 42.9 °F 37.0 °F 71% 29.84 in 10.0 mi SE 5.8 mph - N/A   Scattered Clouds
2:23 AM 46.4 °F 41.5 °F 37.4 °F 71% 29.90 in 10.0 mi ESE 10.4 mph - N/A   Mostly Cloudy
2:38 AM 46.4 °F 40.7 °F 37.4 °F 71% 29.90 in 10.0 mi East 12.7 mph 18.4 mph N/A   Mostly Cloudy
2:43 AM 46.4 °F 41.5 °F 37.4 °F 71% 29.89 in 10.0 mi East 10.4 mph 18.4 mph N/A   Mostly Cloudy
2:48 AM 44.6 °F 38.4 °F 37.4 °F 76% 29.89 in 10.0 mi ESE 12.7 mph - N/A   Mostly Cloudy
2:53 AM 44.6 °F 40.2 °F 37.4 °F 76% 29.90 in 10.0 mi ESE 8.1 mph - N/A   Mostly Cloudy
2:58 AM 44.6 °F 40.2 °F 37.4 °F 76% 29.83 in 10.0 mi East 8.1 mph - N/A   Mostly Cloudy
3:58 AM 43.0 °F 37.7 °F 37.4 °F 81% 29.84 in 10.0 mi ESE 9.2 mph - N/A   Scattered Clouds
4:08 AM 42.8 °F 37.0 °F 37.4 °F 81% 29.90 in 10.0 mi ESE 10.4 mph - N/A   Mostly Cloudy
4:23 AM 44.6 °F 40.2 °F 37.4 °F 76% 29.90 in 10.0 mi East 8.1 mph - N/A   Scattered Clouds
4:58 AM 42.8 °F 41.1 °F 37.4 °F 81% 29.83 in 10.0 mi East 3.5 mph - N/A   Partly Cloudy
5:13 AM 42.8 °F 39.3 °F 37.4 °F 81% 29.89 in 10.0 mi ESE 5.8 mph - N/A   Mostly Cloudy
5:58 AM 43.2 °F 37.4 °F 37.0 °F 79% 29.82 in 10.0 mi ESE 10.4 mph - N/A   Mostly Cloudy
6:13 AM 42.8 °F 36.6 °F 37.4 °F 81% 29.89 in 10.0 mi ESE 11.5 mph - N/A   Mostly Cloudy
6:28 AM 42.8 °F 36.2 °F 37.4 °F 81% 29.88 in 10.0 mi ESE 12.7 mph - N/A   Mostly Cloudy
6:33 AM 44.6 °F 38.8 °F 37.4 °F 76% 29.88 in 10.0 mi ESE 11.5 mph - N/A   Scattered Clouds
6:38 AM 44.6 °F 38.8 °F 37.4 °F 76% 29.88 in 10.0 mi ESE 11.5 mph - N/A   Scattered Clouds
6:43 AM 44.6 °F 39.7 °F 37.4 °F 76% 29.89 in 10.0 mi ESE 9.2 mph - N/A   Mostly Cloudy
6:58 AM 44.4 °F 42.0 °F 37.0 °F 75% 29.82 in 10.0 mi East 4.6 mph - N/A   Mostly Cloudy
7:35 AM 44.6 °F 40.7 °F 39.2 °F 81% 29.92 in 10.0 mi NNW 6.9 mph - N/A   Overcast
7:40 AM 44.6 °F 39.7 °F 39.2 °F 81% 29.92 in 9.0 mi North 9.2 mph - N/A Rain Light Rain
7:52 AM 44.6 °F 41.4 °F 37.4 °F 76% 29.92 in 10.0 mi WNW 5.8 mph - N/A   Mostly Cloudy
7:54 AM 44.6 °F 41.4 °F 39.2 °F 81% 29.92 in 8.0 mi West 5.8 mph - N/A Rain Light Rain
7:58 AM 44.8 °F 42.4 °F 38.7 °F 79% 29.85 in 7.0 mi West 4.6 mph - 0.01 in Rain Light Rain
8:13 AM 44.6 °F 43.1 °F 39.2 °F 81% 29.91 in 10.0 mi WNW 3.5 mph - N/A Rain Light Rain
8:18 AM 46.4 °F 44.3 °F 39.2 °F 76% 29.91 in 10.0 mi WNW 4.6 mph - N/A Rain Light Rain
8:33 AM 46.4 °F - 39.2 °F 76% 29.91 in 10.0 mi Variable 2.3 mph - N/A Rain Light Rain
8:35 AM 46.4 °F 44.3 °F 39.2 °F 76% 29.91 in 10.0 mi West 4.6 mph - N/A   Mostly Cloudy
8:58 AM 45.5 °F 41.8 °F 39.6 °F 80% 29.85 in 10.0 mi NNW 6.9 mph - 0.01 in   Overcast
9:23 AM 44.6 °F 38.8 °F 41.0 °F 87% 29.93 in 10.0 mi NNW 11.5 mph - N/A   Overcast
9:43 AM 44.6 °F 40.2 °F 39.2 °F 81% 29.92 in 10.0 mi NNW 8.1 mph - N/A   Overcast
9:58 AM 45.5 °F 40.8 °F 38.3 °F 76% 29.86 in 10.0 mi NNW 9.2 mph - N/A   Mostly Cloudy
10:58 AM 47.7 °F - 36.1 °F 64% 29.86 in 10.0 mi NW 11.5 mph - N/A   Overcast
11:58 AM 47.3 °F - 34.0 °F 60% 29.87 in 10.0 mi North 4.6 mph - N/A   Mostly Cloudy
12:16 PM 48.2 °F - 33.8 °F 58% 29.91 in 10.0 mi North 4.6 mph - N/A Rain Light Rain
12:27 PM 48.2 °F - 33.8 °F 58% 29.91 in 10.0 mi WNW 5.8 mph - N/A   Mostly Cloudy
12:29 PM 48.2 °F - 33.8 °F 58% 29.91 in 10.0 mi WNW 3.5 mph - N/A Rain Light Rain
12:44 PM 50.0 °F - 35.6 °F 58% 29.90 in 10.0 mi NE 8.1 mph - N/A   Mostly Cloudy
12:49 PM 50.0 °F - 35.6 °F 58% 29.90 in 10.0 mi NE 5.8 mph - N/A   Scattered Clouds
12:58 PM 49.6 °F - 34.3 °F 56% 29.84 in 10.0 mi Variable 6.9 mph - 0.00 in   Scattered Clouds
1:18 PM 50.0 °F - 33.8 °F 54% 29.89 in 10.0 mi Variable 5.8 mph - N/A   Mostly Cloudy
1:38 PM 50.0 °F - 32.0 °F 50% 29.88 in 10.0 mi NNE 1.2 mph - N/A   Scattered Clouds
1:58 PM 51.1 °F - 31.6 °F 47% 29.81 in 10.0 mi Variable 4.6 mph - N/A   Mostly Cloudy
2:58 PM 54.5 °F - 30.9 °F 41% 29.78 in 10.0 mi NW 5.8 mph - N/A   Partly Cloudy
3:58 PM 55.2 °F - 27.3 °F 34% 29.75 in 10.0 mi West 8.1 mph - N/A   Scattered Clouds
4:23 PM 55.4 °F - 26.6 °F 33% 29.82 in 10.0 mi NW 6.9 mph - N/A   Mostly Cloudy
4:48 PM 53.6 °F - 28.4 °F 38% 29.82 in 10.0 mi Calm Calm - N/A   Scattered Clouds
4:58 PM 54.1 °F - 30.2 °F 40% 29.75 in 10.0 mi North 5.8 mph - N/A   Mostly Cloudy
5:18 PM 55.4 °F - 32.0 °F 41% 29.81 in 10.0 mi North 12.7 mph 16.1 mph N/A   Scattered Clouds
5:44 PM 53.6 °F - 28.4 °F 38% 29.80 in 10.0 mi NNW 16.1 mph - N/A   Partly Cloudy
5:58 PM 54.3 °F - 28.6 °F 37% 29.73 in 10.0 mi NNW 13.8 mph - N/A   Clear
6:23 PM 51.8 °F - 30.2 °F 44% 29.81 in 10.0 mi NW 12.7 mph - N/A   Mostly Cloudy
6:58 PM 51.4 °F - 31.3 °F 46% 29.75 in 10.0 mi NNW 17.3 mph - N/A   Mostly Cloudy
7:18 PM 50.0 °F - 30.2 °F 47% 29.81 in 10.0 mi NNW 15.0 mph 23.0 mph N/A   Scattered Clouds
7:58 PM 49.8 °F - 27.9 °F 43% 29.79 in 10.0 mi NNW 15.0 mph 21.9 mph N/A   Partly Cloudy
8:34 PM 48.2 °F - 28.4 °F 46% 29.87 in 10.0 mi NW 15.0 mph 24.2 mph N/A   Clear
8:58 PM 47.7 °F - 31.6 °F 54% 29.84 in 10.0 mi WNW 12.7 mph - 0.00 in   Scattered Clouds
9:03 PM 48.2 °F - 32.0 °F 54% 29.89 in 10.0 mi NW 15.0 mph - N/A   Mostly Cloudy
9:08 PM 46.4 °F 39.0 °F 32.0 °F 57% 29.88 in 10.0 mi WNW 19.6 mph - N/A   Scattered Clouds
9:13 PM 46.4 °F 39.8 °F 33.8 °F 62% 29.89 in 10.0 mi WNW 16.1 mph - N/A   Scattered Clouds
9:18 PM 46.4 °F 40.7 °F 35.6 °F 66% 29.89 in 10.0 mi NW 12.7 mph - N/A   Mostly Cloudy
9:23 PM 44.6 °F 38.4 °F 35.6 °F 71% 29.88 in 10.0 mi NW 12.7 mph - N/A   Scattered Clouds
9:25 PM 44.6 °F 38.4 °F 33.8 °F 66% 29.88 in 10.0 mi NW 12.7 mph - N/A   Scattered Clouds
9:31 PM 44.6 °F 38.8 °F 32.0 °F 61% 29.88 in 10.0 mi NNW 11.5 mph - N/A   Partly Cloudy
9:58 PM 44.6 °F 39.2 °F 33.3 °F 64% 29.80 in 10.0 mi North 10.4 mph 24.2 mph 0.00 in   Partly Cloudy
10:58 PM 44.4 °F 38.2 °F 30.2 °F 57% 29.77 in 10.0 mi North 12.7 mph - N/A   Clear
11:58 PM 44.2 °F 39.7 °F 29.8 °F 57% 29.73 in 10.0 mi NNE 8.1 mph - N/A   Partly Cloudy